Location: Doughton Park
(36.4224°N, 81.1835°W)
Time: 18:39:43
(UTC-04:00)

ISS - All Passes

Search period start: 30 July 2016 00:00
Search period end: 09 August 2016 00:00
Orbit: 401 x 404 km, 51.6° (Epoch: 30 July)

Date Brightness Start Highest point End Pass type
(mag) Time Alt. Az. Time Alt. Az. Time Alt. Az.
30 Jul - 02:56:04 10° NNW 02:58:43 23° NNE 03:01:23 10° E night (unlit)
30 Jul - 04:32:13 10° WNW 04:35:12 34° SW 04:38:11 10° SSE night (unlit)
30 Jul - 19:33:50 10° S 19:36:26 22° SE 19:39:03 10° ENE daylight
30 Jul - 21:09:49 10° W 21:12:45 30° NW 21:15:42 10° NNE visible
31 Jul - 02:03:40 10° N 02:05:35 15° NNE 02:07:30 10° ENE night (unlit)
31 Jul - 03:39:06 10° NW 03:42:22 78° SW 03:45:36 10° SE night (unlit)
31 Jul - 18:42:53 10° SE 18:43:43 11° SE 18:44:33 10° ESE daylight
31 Jul - 20:16:31 10° WSW 20:19:45 60° NW 20:22:58 10° NE daylight
31 Jul - 21:55:43 10° NW 21:56:44 11° NNW 21:57:45 10° N visible
01 Aug - 01:12:09 10° NNE 01:12:20 10° NNE 01:12:31 10° NNE visible
01 Aug - 02:46:14 10° NW 02:49:25 48° NE 02:52:34 10° ESE night (unlit)
01 Aug - 04:23:52 10° W 04:25:31 13° SW 04:27:10 10° SSW night (unlit)
01 Aug - 19:23:36 10° SW 19:26:48 61° SE 19:30:01 10° NE daylight
01 Aug - 21:01:20 10° WNW 21:03:30 16° NNW 21:05:40 10° NNE visible
02 Aug - 01:53:33 10° NNW 01:56:21 26° NNE 01:59:09 10° E night (unlit)
02 Aug - 03:29:55 10° WNW 03:32:44 27° SW 03:35:34 10° SSE night (unlit)
02 Aug - 18:31:08 10° SSW 18:33:57 27° SE 18:36:46 10° ENE daylight
02 Aug - 20:07:32 10° W 20:10:20 26° NNW 20:13:09 10° NNE daylight
03 Aug - 01:01:02 10° NNW 01:03:11 16° NNE 01:05:21 10° ENE visible
03 Aug - 02:36:40 10° NW 02:39:53 61° SW 02:43:05 10° SE night (unlit)
03 Aug - 17:39:31 10° SSE 17:41:10 13° SE 17:42:48 10° E daylight
03 Aug - 19:14:06 10° WSW 19:17:15 48° NW 19:20:26 10° NE daylight
03 Aug - 20:54:05 10° NNW 20:54:20 10° NNW 20:54:34 10° NNW visible
04 Aug - 00:08:55 10° N 00:09:56 11° NNE 00:10:56 10° NE visible
04 Aug - 01:43:42 10° NW 01:46:56 60° NE 01:50:08 10° ESE night (unlit)
04 Aug - 03:22:05 10° WSW 03:22:57 11° SW 03:23:48 10° SW night (unlit)
04 Aug - 18:21:01 10° SW 18:24:15 77° SE 18:27:31 10° NE daylight
04 Aug - 19:59:06 10° WNW 20:01:02 15° NNW 20:02:58 10° N daylight
05 Aug - 00:50:55 10° NNW 00:53:51 30° NE 00:56:47 10° E visible
05 Aug - 02:27:33 10° WNW 02:30:10 22° SW 02:32:46 10° S night (unlit)
05 Aug - 17:28:22 10° SSW 17:31:20 33° SE 17:34:20 10° ENE daylight
05 Aug - 19:05:09 10° W 19:07:49 23° NNW 19:10:29 10° NNE daylight
05 Aug - 23:58:19 10° NNW 00:00:41 18° NNE 00:03:03 10° ENE visible
06 Aug - 01:34:08 10° WNW 01:37:17 49° SW 01:40:26 10° SSE night (unlit)
06 Aug - 16:36:23 10° S 16:38:30 16° SE 16:40:37 10° E daylight
06 Aug - 18:11:35 10° WSW 18:14:40 40° NW 18:17:47 10° NE daylight
06 Aug - 23:05:59 10° N 23:07:24 12° NNE 23:08:49 10° NE visible
07 Aug - 00:41:03 10° NW 00:44:18 74° NE 00:47:33 10° SE visible
07 Aug - 17:18:21 10° SW 17:21:37 86° NW 17:24:52 10° NE daylight
07 Aug - 18:56:48 10° NW 18:58:28 13° NNW 19:00:07 10° N daylight
07 Aug - 23:48:11 10° NNW 23:51:14 35° NE 23:54:15 10° ESE visible
08 Aug - 01:25:06 10° W 01:27:27 18° SW 01:29:48 10° S night (unlit)
08 Aug - 16:25:33 10° SSW 16:28:38 41° SE 16:31:44 10° ENE daylight
08 Aug - 18:02:40 10° W 18:05:10 20° NNW 18:07:41 10° NNE daylight
08 Aug - 22:55:29 10° NNW 22:58:03 21° NNE 23:00:34 10° E visible
